This is the latest recevied weather packets stored in our database for station/object N4DBJ. If no packets are shown the sender has not sent any weather packets the latest 10 day(s).
| Time | Temp. | Humidity | Pressure | Rain* | Wind** | Luminosity | Snow |
|---|---|---|---|---|---|---|---|
| 1777849712 | 20° C | 41% | 1013 hPa | 0 mm | - | 41 W/m² | - |
| 1777849409 | 19.44° C | 42% | 1013.3 hPa | 0 mm | - | 136 W/m² | - |
| 1777849107 | 20° C | 43% | 1013.4 hPa | 0 mm | - | 43 W/m² | - |
| 1777848802 | 19.44° C | 41% | 1013.4 hPa | 0 mm | - | 169 W/m² | - |
| 1777848499 | 20° C | 41% | 1013.5 hPa | 0 mm | - | 171 W/m² | - |
| 1777848196 | 20° C | 40% | 1013.4 hPa | 0 mm | - | 188 W/m² | - |
| 1777847894 | 20.56° C | 40% | 1013.7 hPa | 0 mm | - | 196 W/m² | - |
| 1777847591 | 21.11° C | 40% | 1013.7 hPa | 0 mm | - | 188 W/m² | - |
| 1777847287 | 21.11° C | 38% | 1013.7 hPa | 0 mm | - | 248 W/m² | - |
| 1777846986 | 20.56° C | 40% | 1013.6 hPa | 0 mm | - | 219 W/m² | - |
| 1777846683 | 20.56° C | 40% | 1013.6 hPa | 0 mm | - | 280 W/m² | - |
| 1777846381 | 20° C | 39% | 1013.5 hPa | 0 mm | - | 285 W/m² | - |
| 1777846077 | 20° C | 44% | 1013.7 hPa | 0 mm | - | 285 W/m² | - |
| 1777845774 | 20° C | 42% | 1013.7 hPa | 0 mm | - | 305 W/m² | - |
| 1777845471 | 21.11° C | 39% | 1013.8 hPa | 0 mm | - | 266 W/m² | - |
| 1777845168 | 21.11° C | 42% | 1013.7 hPa | 0 mm | - | 289 W/m² | - |
| 1777844866 | 20° C | 39% | 1013.8 hPa | 0 mm | - | 331 W/m² | - |
| 1777844563 | 20.56° C | 39% | 1014.1 hPa | 0 mm | - | 292 W/m² | - |
| 1777844261 | 20° C | 38% | 1014.4 hPa | 0 mm | - | 301 W/m² | - |
| 1777843958 | 20° C | 42% | 1014.4 hPa | 0 mm | - | 364 W/m² | - |
| 1777843654 | 20° C | 41% | 1014.4 hPa | 0 mm | - | 385 W/m² | - |
| 1777843352 | 20° C | 40% | 1014.6 hPa | 0 mm | - | 391 W/m² | - |
| 1777843050 | 20.56° C | 42% | 1014.5 hPa | 0 mm | - | 429 W/m² | - |
| 1777842746 | 20° C | 40% | 1014.6 hPa | 0 mm | - | 445 W/m² | - |
| 1777842441 | 20.56° C | 38% | 1014.8 hPa | 0 mm | - | 469 W/m² | - |
* Rain latest hour (hover to see other rain measurements)
** Current wind speed in m/s (hover to see current wind gust speed)